Home > Weather > Araguaína > Past weeks

Flag for Brazil Weather for the Past 2 Weeks in Araguaína, Tocantins, Brazil

Now
75 °F

Clear.


Feels Like: 74 °F
Forecast: 73 / 94 °F
Wind: 6 mph from North

Location: Maraba Airport

Current Time: Feb 9, 2016 at 7:07:20 AM

Latest Report: Feb 9, 2016 at 6:00 AM


Visibility: 10 mi

Pressure: 29.92 "Hg

Humidity: 94%

Dew point: 73 °F

Location of AraguaínaLocation

Historic Weather in Araguaína — Graph

°F

Araguaína Temperature Yesterday

Maximum temperature yesterday: 93 °F (at 3:00 PM)
Minimum temperature yesterday: 75 °F (at 12:00 AM)
Average temperature yesterday: 83 °F

High & Low Weather Summary for the Past Weeks

 TemperatureHumidityPressure
High93 °F (Feb 7, 3:00 PM)100% (Jan 25, 7:00 AM)30.21 "Hg (Jan 25, 7:00 AM)
Low72 °F (Jan 28, 3:00 AM)52% (Jan 31, 3:00 PM)29.77 "Hg (Jan 29, 5:00 PM)
Average80 °F86%29.89 "Hg
* Reported Jan 25 6:00 AM — Feb 9 6:00 AM, Araguaína, Weather by CustomWeather, © 2016

Note: Actual official high and low records may vary slightly from our data, if they occured in-between our weather recording intervals... More about our weather records

Advertising

Araguaína Weather History for the Previous 24 Hours

 ConditionsComfort  
Time TempWeatherWind HumidityBarometerVisibility
6:00 AM
Tue, Feb 9
75 °FClear.6 mph94%29.92 "Hg10 mi
5:00 AM75 °FClear.5 mph94%29.89 "Hg10 mi
4:00 AM75 °FClear.5 mph94%29.89 "Hg10 mi
3:00 AM77 °FPassing clouds.3 mph94%29.89 "HgN/A
2:00 AM79 °FPassing clouds.5 mph89%29.89 "HgN/A
1:00 AM79 °FPassing clouds.3 mph89%29.89 "HgN/A
12:00 AM81 °FClear.5 mph84%29.92 "Hg10 mi
11:00 PM
Mon, Feb 8
81 °FClear.5 mph89%29.92 "Hg10 mi
10:00 PM79 °FClear.2 mph89%29.92 "Hg10 mi
9:00 PM79 °FClear.1 mph89%29.86 "Hg10 mi
8:00 PM81 °FClear.1 mph84%29.86 "Hg10 mi
7:00 PM82 °FPassing clouds.2 mph79%29.86 "HgN/A
5:00 PM93 °FPassing clouds.6 mph56%29.83 "HgN/A
4:00 PM93 °FScattered clouds.6 mph56%29.86 "HgN/A
3:00 PM93 °FScattered clouds.7 mph53%29.89 "HgN/A
2:00 PM91 °FScattered clouds.7 mph59%29.92 "HgN/A
1:00 PM91 °FScattered clouds.7 mph59%29.95 "HgN/A
12:00 PM90 °FScattered clouds.6 mph67%29.98 "HgN/A
11:00 AM88 °FScattered clouds.6 mph70%29.98 "HgN/A
10:00 AM86 °FPartly sunny.8 mph75%29.98 "HgN/A
9:00 AM82 °FPartly sunny.5 mph84%29.98 "HgN/A
8:00 AM79 °FPassing clouds.5 mph89%29.95 "HgN/A
7:00 AM77 °FPassing clouds.3 mph94%29.92 "HgN/A
Weather by CustomWeather, © 2016

See weather overviewHow to use our weather pages